Home   Weather   Luton   Past weeks
Flag for United Kingdom

Past Weather in Luton, England, United Kingdom — Yesterday and Last 2 Weeks

Now
45 °F

Overcast.


Feels Like: 38 °F
Forecast: N/A
Wind: 14 mph from Northwest

Location: Luton Airport

Current Time: Nov 12, 2019 at 11:07:28 pm

Latest Report: Nov 12, 2019 at 10:20 pm


Visibility: N/A

Pressure: 29.50 "Hg

Humidity: 87%

Dew Point: 41 °F

Location of LutonLocation

Past Weather in Luton — Graph

°F

Luton Temperature Yesterday

Maximum temperature yesterday: 46 °F (at 12:20 pm)
Minimum temperature yesterday: 39 °F (at 7:20 pm)
Average temperature yesterday: 42 °F

High & Low Weather Summary for the Past Weeks

 TemperatureHumidityPressure
High57 °F (Nov 1, 1:20 pm)100% (Oct 29, 1:50 am)30.30 "Hg (Oct 29, 1:50 am)
Low30 °F (Nov 9, 6:50 am)62% (Oct 30, 12:20 pm)28.77 "Hg (Nov 2, 10:50 am)
Average44 °F92%29.57 "Hg
* Reported Oct 28 9:20 pm — Nov 12 9:50 pm, Luton. Weather by CustomWeather, © 2019

Note: Actual official high and low records may vary slightly from our data, if they occured in-between our weather recording intervals... More about our weather records

Advertising

Luton Weather History for the Previous 24 Hours

Scroll right to see more
 ConditionsComfort  
Time TempWeatherWind HumidityBarometerVisibility
9:50 pm
Tue, Nov 12
45 °FOvercast.14 mph87%29.50 "HgN/A
9:20 pm45 °FOvercast.12 mph87%29.47 "HgN/A
8:50 pm45 °FOvercast.15 mph87%29.47 "HgN/A
8:20 pm45 °FOvercast.15 mph87%29.47 "HgN/A
7:50 pm45 °FOvercast.15 mph87%29.45 "HgN/A
7:20 pm45 °FOvercast.16 mph87%29.45 "HgN/A
6:50 pm43 °FPassing clouds.14 mph93%29.45 "HgN/A
6:20 pm43 °FPassing clouds.14 mph93%29.45 "HgN/A
5:50 pm45 °FPartly cloudy.16 mph87%29.42 "HgN/A
5:20 pm43 °FMostly cloudy.14 mph93%29.42 "HgN/A
4:50 pm43 °FOvercast.15 mph93%29.42 "HgN/A
4:20 pm43 °FMostly cloudy.17 mph87%29.39 "HgN/A
3:50 pm43 °FCloudy.15 mph87%29.39 "HgN/A
3:20 pm41 °FLight rain. Mostly cloudy.15 mph93%29.39 "HgN/A
2:50 pm41 °FLight rain. Overcast.15 mph93%29.39 "HgN/A
2:20 pm41 °FOvercast.17 mph87%29.39 "HgN/A
1:50 pm43 °FMostly cloudy.21 mph81%29.39 "HgN/A
1:20 pm43 °FLight rain. Mostly cloudy.22 mph81%29.39 "HgN/A
12:50 pm43 °FOvercast.18 mph81%29.39 "HgN/A
12:20 pm43 °FPartly sunny.17 mph76%29.39 "HgN/A
11:50 am43 °FLight rain. Partly sunny.20 mph76%29.39 "HgN/A
11:20 am43 °FScattered clouds.20 mph76%29.42 "HgN/A
10:50 am43 °FQuite cool.20 mph76%29.42 "HgN/A
9:50 am41 °FSunny.20 mph81%29.42 "Hg10 mi
9:20 am41 °FQuite cool.18 mph76%29.42 "HgN/A
8:50 am39 °FChilly.17 mph81%29.45 "HgN/A
8:20 am37 °FChilly.16 mph87%29.45 "HgN/A
7:50 am37 °FChilly.16 mph87%29.45 "HgN/A
7:20 am37 °FChilly.16 mph87%29.45 "HgN/A
6:50 am37 °FChilly.14 mph87%29.45 "HgN/A
6:20 am37 °FChilly.14 mph87%29.45 "HgN/A
5:50 am37 °FChilly.15 mph87%29.47 "HgN/A
5:20 am37 °FChilly.16 mph87%29.47 "HgN/A
4:50 am37 °FChilly.15 mph87%29.47 "HgN/A
4:20 am37 °FChilly.16 mph87%29.47 "HgN/A
3:50 am37 °FChilly.14 mph87%29.47 "HgN/A
3:20 am37 °FChilly.13 mph87%29.47 "HgN/A
2:50 am39 °FChilly.15 mph81%29.47 "HgN/A
2:20 am39 °FChilly.15 mph81%29.47 "HgN/A
1:50 am39 °FChilly.13 mph81%29.50 "HgN/A
1:20 am39 °FChilly.14 mph81%29.50 "HgN/A
12:50 am39 °FChilly.13 mph81%29.50 "HgN/A
12:20 am39 °FChilly.12 mph81%29.50 "HgN/A
11:50 pm
Mon, Nov 11
39 °FChilly.13 mph81%29.50 "HgN/A
11:20 pm39 °FChilly.15 mph81%29.53 "HgN/A
Weather by CustomWeather, © 2019

See weather overview